Location: Bratislava
(0.0000°N, 17.1167°E)
Time: 13:28:03
(UTC+01:00)

Daily predictions for brighter satellites

Satellite Brightness Start Highest point End
(mag) Time Altitude Azimuth Time Altitude Azimuth Time Altitude Azimuth
ARIANE 5 DEB (SYLDA) 4.3 17:57:55 10° WNW 18:02:05 62° NNE 18:24:18 10° E
CZ-3B R/B 3.1 18:07:01 10° SSW 18:10:32 25° SE 18:18:12 10° E
YAOGAN 1 3.1 18:15:01 10° SSE 18:19:03 38° ENE 18:23:03 10° N
Meteosat 1 Rocket2 3.3 18:18:09 10° SW 18:21:57 53° SSE 18:27:04 10° ENE
Meteor 1-15 Rocket 4.3 18:18:46 10° S 18:24:26 57° E 18:29:57 10° NNE
Cosmos 1821 Rocket 4.1 18:22:52 10° N 18:29:14 90° WSW 18:35:35 10° S
ARIANE 44L R/B 3.8 18:26:07 10° W 18:29:47 85° S 18:47:34 13° E
NOSS 3-2 (C) 4.4 18:25:44 10° SSE 18:29:53 21° ESE 18:33:59 10° ENE
Ariane Rocket 3.5 18:27:38 10° SE 18:32:21 38° ENE 18:37:01 10° N
Cosmos 1842 3.3 18:31:08 10° N 18:34:53 54° E 18:38:40 10° SSE
Aurora 2 Rocket 4.0 18:36:12 10° S 18:37:38 12° SSE 18:39:08 10° SE
NOSS 3-2 (A) 3.4 18:34:18 10° S 18:39:41 48° ESE 18:45:02 10° NE
Meteor 1-21 4.2 18:34:39 10° N 18:40:16 67° E 18:45:51 10° SSE
H-2A R/B 4.3 18:37:09 10° S 18:40:43 40° W 18:44:19 10° NNW
Cosmos 2219 4.0 18:36:57 10° NNE 18:41:45 29° ENE 18:46:34 10° SE
Cosmos 1346 Rocket 3.6 18:38:47 10° SSW 18:42:46 56° W 18:46:45 10° N
Cosmos 1980 Rocket 2.3 18:37:34 10° SSW 18:43:11 82° WNW 18:48:49 10° NNE
Cosmos 1340 2.6 18:40:10 10° S 18:43:58 85° E 18:47:43 10° N
IUS-17 SRM-1 3.7 18:44:34 10° NNW 18:46:23 16° NNE 18:47:01 15° NE
Cosmos 1302 Rocket 4.2 18:45:56 10° N 18:50:57 47° ENE 18:55:59 10° SSE
GPS 2-05 Rocket1 4.1 18:52:27 10° NNW 18:54:37 19° NE 18:54:39 19° NE
Cosmos 1190 Rocket 4.0 18:49:23 10° SSW 18:54:38 90° ESE 18:59:54 10° NNE
ATLAS 3B CENTAUR R/B 2.0 18:53:49 10° W 18:56:05 22° NW 18:57:11 15° N
ATLAS 3B R/B 3.0 18:49:43 10° S 18:56:42 48° ESE 19:03:25 10° NE
SWIFT 3.8 18:53:52 10° NNW 18:57:12 23° NNE 18:58:42 19° NE
CZ-2D R/B 3.9 18:55:27 14° SE 18:58:10 31° E 19:01:34 10° NNE
Tiangong 2 3.5 18:59:04 10° SSE 18:59:29 11° SSE 18:59:29 11° SSE
Ariane H10+ 2.3 19:01:30 10° NW 19:03:49 29° NNE 19:05:17 23° NE
Ariane H10+ 1.7 19:00:44 10° W 19:04:44 90° N 19:05:24 46° E
CENTAUR R/B 3.4 19:01:01 10° SSE 19:04:15 20° SE 19:04:15 20° SE
YAOGAN 6 2.5 19:03:48 10° SSE 19:07:29 71° E 19:11:10 10° N
Cosmos 407 Rocket 4.2 19:02:27 10° SSW 19:07:42 58° WNW 19:12:54 10° N
CZ-4 R/B 4.0 19:05:39 10° SSW 19:08:53 23° WSW 19:12:09 10° NW
ARIANE 5 R/B 4.0 19:07:50 10° WSW 19:12:38 77° S 19:27:34 26° E
ARIANE 5 R/B 4.0 19:07:51 10° WSW 19:12:38 77° S 19:27:33 26° E
Cosmos 1378 4.1 19:09:05 10° NNW 19:12:38 48° W 19:16:14 10° S
Lacrosse 5 rocket 3.4 19:09:41 10° WNW 19:13:29 29° WSW 19:17:26 10° S
Cosmos 614 Rocket 4.3 19:10:52 10° SSW 19:15:55 64° WNW 19:21:00 10° N
Cosmos 1766 3.1 19:13:11 10° S 19:17:02 60° E 19:18:11 40° NNE
TIMED 4.4 19:15:11 10° S 19:19:30 65° ESE 19:21:13 34° NNE
GP-B 3.8 19:16:47 10° S 19:21:08 55° W 19:25:27 10° NNW
Palapa 6 Rocket 4.4 19:17:30 10° WNW 19:25:27 81° NNE 19:28:59 38° ESE
USA 267 4.5 19:22:14 10° NNE 19:28:11 39° NW 19:34:09 10° WSW
Meteor 1-22 Rocket 3.9 19:23:56 10° S 19:29:20 83° E 19:34:36 10° N
Cosmos 1153 Rocket 4.4 19:24:06 10° N 19:30:29 77° E 19:36:52 10° S
Envisat 4.5 19:26:57 10° SSW 19:31:36 36° WSW 19:36:13 10° NW
Cosmos 2322 Rocket 2.1 19:26:47 10° S 19:32:20 63° ESE 19:33:23 52° ENE
Cosmos 1140 Rocket 4.2 19:28:52 10° SSW 19:33:57 54° WNW 19:39:03 10° N
Cosmos 2227 Rocket 2.8 19:29:28 10° N 19:33:23 38° NE 19:33:23 38° NE
SPOT 3 Rocket 4.1 19:37:04 42° NNE 19:37:04 42° NNE 19:40:44 10° N
Cosmos 1954 Rocket 4.5 19:33:32 10° SSW 19:38:46 61° WNW 19:43:59 10° N
Maqsat-B 3.9 19:34:13 10° WNW 19:42:18 37° N 19:42:50 36° N
BLOCK-DM UPPERSTAGE 3.6 19:43:41 10° W 19:47:25 89° N 19:47:42 80° E
Cosmos 2285 Rocket 4.3 19:44:58 10° SSW 19:51:11 64° WNW 19:57:27 10° N
SL-16 R/B 2.5 19:49:42 10° SSW 19:55:17 62° WNW 19:57:33 35° N
Gbstr 26 Del rocket 3.8 19:50:53 10° NW 19:55:40 64° SW 19:55:45 63° SW
OAO 2 Rocket 4.0 19:53:40 10° NW 19:57:29 50° NW 19:57:29 50° NW
Ariane H10 3.5 19:45:26 10° W 19:58:52 61° NNW 19:58:52 61° NNW
Cosmos 921 Rocket 4.3 19:56:20 10° NNW 20:00:09 40° W 20:00:09 40° W
Cosmos 2297 Rocket 3.5 20:13:39 10° NNW 20:16:53 34° NW 20:16:53 34° NW
CZ-3B R/B 4.1 21:00:17 10° W 21:42:26 - ENE 21:08:25 61° NNW
